Location: Beulah
(33.1426°N, 83.0557°W)
Time: 04:21:49
(UTC+00:00)

Envisat - Pass Details

Date: 03 December 2021
Orbit: 764 x 766 km, 98.2° (Epoch: 23 January)

Event Time Altitude Azimuth Distance (km) Brightness Sun altitude
Rises 11:12:33 0° 360° (N) 3,236 6.1 -13.8°
Reaches altitude 10° 11:15:04 10° 350° (N) 2,306 5.2 -13.3°
Maximum altitude 11:19:31 31° 289° (WNW) 1,308 3.7 -12.4°
Drops below altitude 10° 11:23:56 10° 228° (SW) 2,294 5.2 -11.5°
Sets 11:26:26 0° 218° (SW) 3,216 6.0 -11.0°
